Sigfox identifier Datetime Temperature Humidity SNR
0039543F 2018-10-09 09:01:01 20.2 38 20.1
0039543F 2018-10-09 07:54:37 20.2 38 20.1
0039543F 2018-10-09 06:48:17 20.2 38 20.1
0039543F 2018-10-09 05:41:49 20.2 38 17.9
0039543F 2018-10-09 04:35:26 20.2 38 17.9
0039543F 2018-10-09 01:16:15 20.2 38 17.7
0039543F 2018-10-09 00:09:50 20.2 38 17.7
0039543F 2018-10-08 23:03:27 20.1 38 17.5
0039543F 2018-10-08 21:57:04 20 38 17.3
0039543F 2018-10-08 20:50:39 20 38 17.3
0039543F 2018-10-08 19:44:14 20 38 19.7
0039543F 2018-10-08 18:37:50 20 37 19.7
0039543F 2018-10-08 17:31:26 20 37 19.7
0039543F 2018-10-08 16:24:57 20 37 19.8
0039543F 2018-10-08 15:18:32 20 37 20
0039543F 2018-10-08 14:12:05 20.2 37 20
0039543F 2018-10-08 10:52:54 20.4 36 20.2
0039543F 2018-10-07 23:48:33 20.4 39 20.4
0039543F 2018-10-07 22:42:08 20.5 39 20.6
0039543F 2018-10-07 21:35:41 20.6 39 20.8
0039543F 2018-10-07 20:29:10 20.6 39 21
0039543F 2018-10-07 19:22:43 20.6 39 21.3
0039543F 2018-10-07 18:16:11 20.6 39 18.8
0039543F 2018-10-07 17:09:42 20.6 39 19.1
0039543F 2018-10-07 12:43:43 20.6 39 19.4
0039543F 2018-10-07 11:37:13 20.6 39 19.7
0039543F 2018-10-07 10:30:44 20.6 40 20
0039543F 2018-10-06 22:19:40 20.8 41 20.4
0039543F 2018-10-06 13:28:19 20.8 41 20.9
0039543F 2018-10-06 12:21:53 20.8 41 21.3
0039543F 2018-10-06 09:02:29 20.8 41 21.9
0039543F 2018-10-06 06:49:33 20.9 42 22.5
0039543F 2018-10-06 02:23:41 21 43 23.3
0039543F 2018-10-06 01:17:17 21 43 24.2
0039543F 2018-10-05 21:57:55 21.3 44 25.5
0039543F 2018-10-05 18:38:31 21.5 45 14.4
0039543F 2018-10-05 16:25:31 21.9 46 14.2
0039543F 2018-10-05 15:19:01 21.9 56 0